Sunflower Gold — JD2460 — position and weather

sailwx.info

Track history (hours):
 
Tides and Currents Weather Stations Pressure Air Temp Water Temp Dewpoint Dewpoint Depression Visibility Wind Speed Wind Dir Waves Ship Positions

Sunflower Gold

Last reported at 2014-Nov-22 12:16 UTC. Time now 2014-Nov-23 05:54 UTC.
Position N 34°34' E 134°49'.

Length 166 m; draft 5.8 m.

Type: Passenger vessel. MMSI: 431000331.

Date/timePositionNaut miles runAvg speedWind from/ knotsBaromVisibWave heightAir tempDewpointWater temp
2014-Nov-22 12:16N 34°34' E 134°49'1521.4
2014-Nov-22 11:33N 34°36' E 135°08'10 9.0
2014-Nov-22 10:29N 34°42' E 135°17'0 0.0
2014-Nov-22 09:17N 34°42' E 135°17'0 0.0
2014-Nov-22 08:29N 34°42' E 135°17'0 0.0
2014-Nov-22 07:29N 34°42' E 135°17'0 0.0
2014-Nov-22 06:29N 34°42' E 135°17'0 0.0
2014-Nov-22 05:23N 34°42' E 135°17'0 0.0
2014-Nov-22 04:17N 34°42' E 135°17'0 0.0
2014-Nov-22 03:29N 34°42' E 135°17'0 0.0
2014-Nov-22 02:29N 34°42' E 135°17'0 0.0
2014-Nov-22 01:29N 34°42' E 135°17'0 0.0
2014-Nov-22 00:26N 34°42' E 135°17'0 0.0
2014-Nov-21 23:32N 34°42' E 135°17'2 1.9
2014-Nov-21 22:33N 34°40' E 135°18'1514.9
2014-Nov-21 21:33N 34°37' E 135°01'9 0.3
2014-Nov-20 11:31N 34°35' E 134°50'1920.1
2014-Nov-20 10:33N 34°37' E 135°13'6 5.8
2014-Nov-20 09:28N 34°42' E 135°17'0 0.0
2014-Nov-20 08:22N 34°42' E 135°17'0 0.0
2014-Nov-20 07:28N 34°42' E 135°17'0 0.0
2014-Nov-20 06:28N 34°42' E 135°17'0 0.0
2014-Nov-20 05:28N 34°42' E 135°17'0 0.0
2014-Nov-20 04:28N 34°42' E 135°17'0 0.0
2014-Nov-20 03:16N 34°42' E 135°17'0 0.0
2014-Nov-20 02:16N 34°42' E 135°17'0 0.0
2014-Nov-20 01:16N 34°42' E 135°17'0 0.0
2014-Nov-20 00:28N 34°42' E 135°17'0 0.0
2014-Nov-19 23:28N 34°42' E 135°17'0 0.0
2014-Nov-19 22:22N 34°42' E 135°17'0 0.0
2014-Nov-19 21:33N 34°42' E 135°17'1313.1
2014-Nov-19 20:33N 34°36' E 135°03'10 0.3
2014-Nov-18 11:29N 34°35' E 134°51'1920.2
2014-Nov-18 10:33N 34°37' E 135°14'6 4.8
2014-Nov-18 09:24N 34°42' E 135°17'0 0.0
2014-Nov-18 08:30N 34°42' E 135°17'0 0.0
2014-Nov-18 07:30N 34°42' E 135°17'0 0.0
2014-Nov-18 06:30N 34°42' E 135°17'0 0.0
2014-Nov-18 05:18N 34°42' E 135°17'0 0.0
2014-Nov-18 04:24N 34°42' E 135°17'0 0.0
2014-Nov-18 03:24N 34°42' E 135°17'0 0.0
2014-Nov-18 02:24N 34°42' E 135°17'0 0.0
2014-Nov-18 01:18N 34°42' E 135°17'0 0.0
2014-Nov-18 00:24N 34°42' E 135°17'0 0.0
2014-Nov-17 23:30N 34°42' E 135°17'0 0.0
2014-Nov-17 22:12N 34°42' E 135°17'0 0.0
2014-Nov-17 21:33N 34°42' E 135°17'1312.9
2014-Nov-17 20:33N 34°35' E 135°04'14 0.3
2014-Nov-16 03:23N 34°33' E 134°47'1518.3
2014-Nov-16 02:33N 34°36' E 135°05'1211.6
2014-Nov-16 01:33N 34°42' E 135°17'0 0.0
2014-Nov-16 00:32N 34°42' E 135°17'0 0.0
2014-Nov-15 23:32N 34°42' E 135°17'2 1.5
2014-Nov-15 22:33N 34°41' E 135°18'1414.1
2014-Nov-15 21:33N 34°36' E 135°02'13 0.4
2014-Nov-14 12:30N 34°34' E 134°47'1819.6
2014-Nov-14 11:33N 34°36' E 135°09'9 8.8
2014-Nov-14 10:33N 34°42' E 135°17'0 0.0
2014-Nov-14 09:27N 34°42' E 135°17'0 0.0
2014-Nov-14 08:33N 34°42' E 135°17'0 0.0
2014-Nov-14 07:27N 34°42' E 135°17'0 0.0
2014-Nov-14 06:27N 34°42' E 135°17'0 0.0
2014-Nov-14 05:27N 34°42' E 135°17'0 0.0
2014-Nov-14 04:33N 34°42' E 135°17'0 0.0
2014-Nov-14 03:33N 34°42' E 135°17'0 0.0
2014-Nov-14 02:33N 34°42' E 135°17'0 0.0
2014-Nov-14 01:21N 34°42' E 135°17'0 0.0
2014-Nov-14 00:33N 34°42' E 135°17'0 0.0
2014-Nov-13 23:33N 34°42' E 135°17'0 0.0
2014-Nov-13 22:15N 34°42' E 135°17'0 0.0
2014-Nov-13 21:33N 34°42' E 135°17'1312.6
2014-Nov-13 20:33N 34°34' E 135°05'1917.7
2014-Nov-13 19:29N 34°30' E 134°42'  
Track history (hours):
 
Tides and Currents Weather Stations Pressure Air Temp Water Temp Dewpoint Dewpoint Depression Visibility Wind Speed Wind Dir Waves Ship Positions

Sunflower Gold

Last reported at 2014-Nov-22 12:16 UTC. Time now 2014-Nov-23 05:54 UTC.
Position N 34°34' E 134°49'.

Length 166 m; draft 5.8 m.

Type: Passenger vessel. MMSI: 431000331.

Date/timePositionNaut miles runAvg speedWind from/ knotsBaromVisibWave heightAir tempDewpointWater temp
2014-Nov-22 12:16N 34°34' E 134°49'1521.4
2014-Nov-22 11:33N 34°36' E 135°08'10 9.0
2014-Nov-22 10:29N 34°42' E 135°17'0 0.0
2014-Nov-22 09:17N 34°42' E 135°17'0 0.0
2014-Nov-22 08:29N 34°42' E 135°17'0 0.0
2014-Nov-22 07:29N 34°42' E 135°17'0 0.0
2014-Nov-22 06:29N 34°42' E 135°17'0 0.0
2014-Nov-22 05:23N 34°42' E 135°17'0 0.0
2014-Nov-22 04:17N 34°42' E 135°17'0 0.0
2014-Nov-22 03:29N 34°42' E 135°17'0 0.0
2014-Nov-22 02:29N 34°42' E 135°17'0 0.0
2014-Nov-22 01:29N 34°42' E 135°17'0 0.0
2014-Nov-22 00:26N 34°42' E 135°17'0 0.0
2014-Nov-21 23:32N 34°42' E 135°17'2 1.9
2014-Nov-21 22:33N 34°40' E 135°18'1514.9
2014-Nov-21 21:33N 34°37' E 135°01'9 0.3
2014-Nov-20 11:31N 34°35' E 134°50'1920.1
2014-Nov-20 10:33N 34°37' E 135°13'6 5.8
2014-Nov-20 09:28N 34°42' E 135°17'0 0.0
2014-Nov-20 08:22N 34°42' E 135°17'0 0.0
2014-Nov-20 07:28N 34°42' E 135°17'0 0.0
2014-Nov-20 06:28N 34°42' E 135°17'0 0.0
2014-Nov-20 05:28N 34°42' E 135°17'0 0.0
2014-Nov-20 04:28N 34°42' E 135°17'0 0.0
2014-Nov-20 03:16N 34°42' E 135°17'0 0.0
2014-Nov-20 02:16N 34°42' E 135°17'0 0.0
2014-Nov-20 01:16N 34°42' E 135°17'0 0.0
2014-Nov-20 00:28N 34°42' E 135°17'0 0.0
2014-Nov-19 23:28N 34°42' E 135°17'0 0.0
2014-Nov-19 22:22N 34°42' E 135°17'0 0.0
2014-Nov-19 21:33N 34°42' E 135°17'1313.1
2014-Nov-19 20:33N 34°36' E 135°03'10 0.3
2014-Nov-18 11:29N 34°35' E 134°51'1920.2
2014-Nov-18 10:33N 34°37' E 135°14'6 4.8
2014-Nov-18 09:24N 34°42' E 135°17'0 0.0
2014-Nov-18 08:30N 34°42' E 135°17'0 0.0
2014-Nov-18 07:30N 34°42' E 135°17'0 0.0
2014-Nov-18 06:30N 34°42' E 135°17'0 0.0
2014-Nov-18 05:18N 34°42' E 135°17'0 0.0
2014-Nov-18 04:24N 34°42' E 135°17'0 0.0
2014-Nov-18 03:24N 34°42' E 135°17'0 0.0
2014-Nov-18 02:24N 34°42' E 135°17'0 0.0
2014-Nov-18 01:18N 34°42' E 135°17'0 0.0
2014-Nov-18 00:24N 34°42' E 135°17'0 0.0
2014-Nov-17 23:30N 34°42' E 135°17'0 0.0
2014-Nov-17 22:12N 34°42' E 135°17'0 0.0
2014-Nov-17 21:33N 34°42' E 135°17'1312.9
2014-Nov-17 20:33N 34°35' E 135°04'14 0.3
2014-Nov-16 03:23N 34°33' E 134°47'1518.3
2014-Nov-16 02:33N 34°36' E 135°05'1211.6
2014-Nov-16 01:33N 34°42' E 135°17'0 0.0
2014-Nov-16 00:32N 34°42' E 135°17'0 0.0
2014-Nov-15 23:32N 34°42' E 135°17'2 1.5
2014-Nov-15 22:33N 34°41' E 135°18'1414.1
2014-Nov-15 21:33N 34°36' E 135°02'13 0.4
2014-Nov-14 12:30N 34°34' E 134°47'1819.6
2014-Nov-14 11:33N 34°36' E 135°09'9 8.8
2014-Nov-14 10:33N 34°42' E 135°17'0 0.0
2014-Nov-14 09:27N 34°42' E 135°17'0 0.0
2014-Nov-14 08:33N 34°42' E 135°17'0 0.0
2014-Nov-14 07:27N 34°42' E 135°17'0 0.0
2014-Nov-14 06:27N 34°42' E 135°17'0 0.0
2014-Nov-14 05:27N 34°42' E 135°17'0 0.0
2014-Nov-14 04:33N 34°42' E 135°17'0 0.0
2014-Nov-14 03:33N 34°42' E 135°17'0 0.0
2014-Nov-14 02:33N 34°42' E 135°17'0 0.0
2014-Nov-14 01:21N 34°42' E 135°17'0 0.0
2014-Nov-14 00:33N 34°42' E 135°17'0 0.0
2014-Nov-13 23:33N 34°42' E 135°17'0 0.0
2014-Nov-13 22:15N 34°42' E 135°17'0 0.0
2014-Nov-13 21:33N 34°42' E 135°17'1312.6
2014-Nov-13 20:33N 34°34' E 135°05'1917.7
2014-Nov-13 19:29N 34°30' E 134°42'  

Dump ship's entire track history